Date String (YYYY-MM-DD hh:mm:ss) UTC,Instrument flags,Ambient pressure (hPa),Sample flow (lpm),Bypass flow (lpm),Sample temperature (°C),Ambient temperature (°C),ASC tube jacket temperature (°C),LED temperature (°C),Box temperature (°C),Sample RH (%),Span deviation,Mass concentration (μg/m³),Mass concentration (μg/m³),Mass concentration (μg/m³)
DateTimeUTC,F1_M11,P_M11,Q1_M11,Q2_M11,T1_M11,T2_M11,T3_M11,T4_M11,T5_M11,U1_M11,ZSPAN_M11,X2_M11,X0_M11,X1_M11
2022-01-19 21:00:00,,0831.0,4.99,0.00,22.2,22.8,00.0,31.1,24.1,10.8,0000.0,0001.62,0002.22,0001.52
2022-01-19 21:01:00,,0831.0,5.00,0.00,22.2,22.6,00.0,31.1,24.0,10.8,0000.0,0001.61,0002.14,0001.54
2022-01-19 21:02:00,,0830.9,5.01,0.00,22.2,22.3,00.0,31.1,23.9,10.8,0000.0,0001.65,0002.21,0001.57
2022-01-19 21:03:00,,0830.9,5.00,0.00,22.1,22.1,00.0,31.1,23.8,10.9,0000.0,0001.69,0002.27,0001.60
2022-01-19 21:04:00,,0831.0,4.99,0.00,22.1,21.8,00.0,31.1,23.7,10.9,0000.0,0001.73,0002.34,0001.62
2022-01-19 21:05:00,,0831.0,5.01,0.00,22.0,21.7,00.0,31.1,23.5,10.9,0000.0,0001.75,0002.37,0001.64
2022-01-19 21:06:00,,0831.0,5.00,0.00,22.0,21.5,00.0,31.1,23.5,10.9,0000.0,0001.78,0002.32,0001.66
2022-01-19 21:07:00,,0831.0,5.00,0.00,21.9,21.4,00.0,31.1,23.4,10.9,0000.0,0001.78,0002.26,0001.69
2022-01-19 21:08:00,,0831.0,5.01,0.00,21.9,21.5,00.0,31.1,23.5,10.9,0000.0,0001.82,0002.35,0001.71
2022-01-19 21:09:00,,0831.0,5.00,0.00,22.0,22.2,00.0,31.1,23.8,10.9,0000.0,0001.84,0002.40,0001.73
2022-01-19 21:10:00,,0831.0,4.99,0.00,22.2,23.0,00.0,31.1,24.1,10.8,0000.0,0001.89,0002.50,0001.75
2022-01-19 21:11:00,,0831.0,5.00,0.00,22.3,23.2,00.0,31.2,24.2,10.7,0000.0,0001.91,0002.54,0001.77
2022-01-19 21:12:00,,0831.0,5.00,0.00,22.3,22.9,00.0,31.2,24.2,10.7,0000.0,0001.93,0002.56,0001.79
2022-01-19 21:13:00,,0830.9,5.00,0.00,22.3,22.6,00.0,31.2,24.0,10.7,0000.0,0001.93,0002.51,0001.80
2022-01-19 21:14:00,,0830.9,5.00,0.00,22.2,22.3,00.0,31.2,23.9,10.7,0000.0,0001.96,0002.57,0001.83
2022-01-19 21:15:00,,0830.9,5.01,0.00,22.1,22.0,00.0,31.2,23.8,10.7,0000.0,0001.98,0002.70,0001.85
2022-01-19 21:16:00,,0830.9,4.99,0.00,22.1,21.9,00.0,31.2,23.7,10.7,0000.0,0002.01,0002.80,0001.87
2022-01-19 21:17:00,,0831.0,4.99,0.00,22.0,21.7,00.0,31.1,23.6,10.7,0000.0,0002.03,0002.84,0001.89
2022-01-19 21:18:00,,0831.0,5.00,0.00,22.0,21.6,00.0,31.1,23.5,10.8,0000.0,0002.04,0002.83,0001.89
2022-01-19 21:19:00,,0831.0,5.01,0.00,21.9,21.5,00.0,31.1,23.5,10.8,0000.0,0002.05,0002.79,0001.90
2022-01-19 21:20:00,,0831.0,5.00,0.00,21.9,21.7,00.0,31.1,23.5,10.8,0000.0,0002.06,0002.80,0001.91
2022-01-19 21:21:00,,0831.0,5.00,0.00,22.1,22.5,00.0,31.1,23.9,10.7,0000.0,0002.04,0002.73,0001.91
2022-01-19 21:22:00,,0831.0,4.99,0.00,22.2,23.2,00.0,31.2,24.2,10.7,0000.0,0002.04,0002.72,0001.92
2022-01-19 21:23:00,,0831.0,5.01,0.00,22.3,23.0,00.0,31.2,24.2,10.6,0000.0,0002.06,0002.75,0001.93
2022-01-19 21:24:00,,0831.0,5.00,0.00,22.3,22.8,00.0,31.2,24.1,10.6,0000.0,0002.09,0002.80,0001.95
2022-01-19 21:25:00,,0830.9,4.99,0.00,22.3,22.5,00.0,31.2,24.0,10.7,0000.0,0002.08,0002.77,0001.96
2022-01-19 21:26:00,,0831.0,5.02,0.00,22.2,22.2,00.0,31.2,23.9,10.7,0000.0,0002.06,0002.63,0001.96
2022-01-19 21:27:00,,0831.0,5.00,0.00,22.2,22.0,00.0,31.2,23.8,10.7,0000.0,0002.06,0002.58,0001.96
2022-01-19 21:28:00,,0830.9,4.99,0.00,22.1,21.8,00.0,31.2,23.7,10.7,0000.0,0002.07,0002.60,0001.96
2022-01-19 21:29:00,,0830.9,5.01,0.00,22.1,21.7,00.0,31.2,23.6,10.7,0000.0,0002.09,0002.63,0001.99
2022-01-19 21:30:00,,0831.0,5.01,0.00,22.0,21.6,00.0,31.1,23.6,10.8,0000.0,0002.11,0002.66,0002.00
2022-01-19 21:31:00,,0830.9,4.99,0.00,22.0,21.4,00.0,31.1,23.5,10.8,0000.0,0002.14,0002.71,0002.03
2022-01-19 21:32:00,,0830.9,5.01,0.00,21.9,21.3,00.0,31.1,23.4,10.8,0000.0,0002.17,0002.79,0002.04
2022-01-19 21:33:00,,0831.0,4.99,0.00,22.0,21.8,00.0,31.1,23.6,10.8,0000.0,0002.20,0002.83,0002.06
2022-01-19 21:34:00,,0831.0,5.00,0.00,22.1,22.6,00.0,31.1,23.9,10.7,0000.0,0002.20,0002.81,0002.08
2022-01-19 21:35:00,,0830.9,4.99,0.00,22.2,23.2,00.0,31.2,24.2,10.6,0000.0,0002.22,0002.82,0002.09
2022-01-19 21:36:00,,0831.0,5.01,0.00,22.3,23.0,00.0,31.2,24.2,10.6,0000.0,0002.25,0002.85,0002.11
2022-01-19 21:37:00,,0831.0,5.00,0.00,22.3,22.7,00.0,31.2,24.1,10.6,0000.0,0002.30,0002.98,0002.13
2022-01-19 21:38:00,,0831.0,5.00,0.00,22.3,22.5,00.0,31.2,24.0,10.6,0000.0,0002.36,0003.06,0002.17
2022-01-19 21:39:00,,0831.0,5.00,0.00,22.2,22.2,00.0,31.2,23.9,10.6,0000.0,0002.38,0003.05,0002.20
2022-01-19 21:40:00,,0831.0,4.99,0.00,22.2,22.0,00.0,31.2,23.8,10.7,0000.0,0002.41,0003.08,0002.23
2022-01-19 21:41:00,,0831.0,5.01,0.00,22.1,21.8,00.0,31.2,23.7,10.7,0000.0,0002.43,0003.13,0002.25
2022-01-19 21:42:00,,0831.0,4.99,0.00,22.1,21.7,00.0,31.2,23.7,10.7,0000.0,0002.46,0003.17,0002.28
2022-01-19 21:43:00,,0831.2,5.00,0.00,22.0,21.6,00.0,31.1,23.6,10.7,0000.0,0002.52,0003.32,0002.34
2022-01-19 21:44:00,,0831.2,5.00,0.00,22.0,21.5,00.0,31.1,23.6,10.8,0000.0,0002.55,0003.63,0002.38
2022-01-19 21:45:00,,0831.2,5.00,0.00,21.9,21.4,00.0,31.1,23.5,10.8,0000.0,0002.59,0003.71,0002.40
2022-01-19 21:46:00,,0831.2,5.02,0.00,21.9,21.4,00.0,31.1,23.5,10.8,0000.0,0002.60,0003.73,0002.40
2022-01-19 21:47:00,,0831.1,4.99,0.00,22.0,21.9,00.0,31.1,23.6,10.8,0000.0,0002.62,0003.77,0002.41
2022-01-19 21:48:00,,0831.1,5.01,0.00,22.1,22.7,00.0,31.1,24.0,10.7,0000.0,0002.62,0003.75,0002.43
2022-01-19 21:49:00,,0831.1,4.99,0.00,22.3,23.3,00.0,31.2,24.2,10.6,0000.0,0002.58,0003.63,0002.42
2022-01-19 21:50:00,,0831.2,5.00,0.00,22.3,23.0,00.0,31.2,24.2,10.6,0000.0,0002.58,0003.64,0002.42
2022-01-19 21:51:00,,0831.1,5.00,0.00,22.3,22.8,00.0,31.2,24.1,10.6,0000.0,0002.60,0003.68,0002.43
2022-01-19 21:52:00,,0831.2,5.00,0.00,22.3,22.5,00.0,31.2,24.0,10.6,0000.0,0002.58,0003.61,0002.42
2022-01-19 21:53:00,,0831.2,4.99,0.00,22.2,22.3,00.0,31.2,23.9,10.6,0000.0,0002.55,0003.57,0002.41
2022-01-19 21:54:00,,0831.2,5.01,0.00,22.2,22.1,00.0,31.2,23.8,10.6,0000.0,0002.54,0003.50,0002.37
2022-01-19 21:55:00,,0831.2,5.00,0.00,22.1,21.9,00.0,31.2,23.7,10.6,0000.0,0002.53,0003.21,0002.35
2022-01-19 21:56:00,,0831.3,4.99,0.00,22.1,21.7,00.0,31.2,23.6,10.6,0000.0,0002.51,0003.17,0002.34
2022-01-19 21:57:00,,0831.4,5.01,0.00,22.0,21.6,00.0,31.1,23.6,10.6,0000.0,0002.48,0003.12,0002.32
2022-01-19 21:58:00,,0831.4,4.99,0.00,22.0,21.5,00.0,31.1,23.5,10.6,0000.0,0002.44,0003.05,0002.29
2022-01-19 21:59:00,,0831.4,5.00,0.00,21.9,21.5,00.0,31.1,23.5,10.7,0000.0,0002.39,0002.99,0002.27
